Tracking 30918 objects as of 2-Jul-2025
HD Live streaming from Space Station
objects crossing your sky now

ARIANE 2 DEB

Track ARIANE 2 DEB now!


NORAD ID: 26717
Int'l Code: 1989-006C
Perigee: 577.8 km
Apogee: 35,688.1 km
Inclination: 8.2 °
Period: 636.2 minutes
Semi major axis: 24503 km
RCS: 4.1288 m2 (large)
Launch date: January 27, 1989
Source: France (FR)
Launch site: FRENCH GUIANA (FRGUI)

Note: This is SATELLITE DEBRIS
Your satellite tracking list
OSCAR 25
Track 1 satellite(s)




NASA's NSSDC Master Catalog

Two Line Element Set (TLE):
1 26717U 89006C   25180.17044108 -.00000032  00000-0  83272-3 0  9998
2 26717   8.1918 286.9550 7164202  26.0804 176.5744  2.26333146202478
Source of the keplerian elements: AFSPC